Home   Weather   Alta   Past weeks

Flag for Norway Past Weather in Alta, Norway — Yesterday and Last 2 Weeks

Now
31 °F

Chilly.


Feels Like: 28 °F
Forecast: 28 / 35 °F
Wind: 3 mph from Southeast

Location: Alta Lufthavn

Current Time: Jan 17, 2017 at 8:16:53 am

Latest Report: Jan 17, 2017 at 7:00 am


Visibility: N/A

Pressure: 29.76 "Hg

Humidity: 72%

Dew Point: 24 °F

Location of AltaLocation

Past Weather in Alta — Graph

°F

Alta Temperature Yesterday

Maximum temperature yesterday: 34 °F (at 12:00 am)
Minimum temperature yesterday: 21 °F (at 10:00 am)
Average temperature yesterday: 26 °F

High & Low Weather Summary for the Past Weeks

 TemperatureHumidityPressure
High38 °F (Jan 8, 5:00 pm)96% (Jan 16, 5:00 am)30.29 "Hg (Jan 16, 5:00 am)
Low-10 °F (Jan 4, 3:00 pm)44% (Jan 5, 11:00 pm)28.88 "Hg (Jan 11, 12:00 pm)
Average19 °F78%29.52 "Hg
* Reported Jan 2 6:00 am — Jan 17 6:00 am, Alta, Weather by CustomWeather, © 2017

Note: Actual official high and low records may vary slightly from our data, if they occured in-between our weather recording intervals... More about our weather records

Advertising

Alta Weather History for the Previous 24 Hours

Scroll right to see more
 ConditionsComfort  
Time TempWeatherWind HumidityBarometerVisibility
6:00 am
Tue, Jan 17
31 °FChilly.5 mph71%29.75 "HgN/A
5:00 am32 °FChilly.6 mph71%29.75 "HgN/A
4:00 am31 °FChilly.3 mph74%29.76 "HgN/A
3:00 am30 °FChilly.6 mph80%29.76 "HgN/A
2:00 am28 °FChilly.6 mph87%29.77 "HgN/A
1:00 am26 °FChilly.6 mph84%29.79 "HgN/A
12:00 am27 °FChilly.6 mph69%29.80 "HgN/A
11:00 pm
Mon, Jan 16
29 °FChilly.7 mph60%29.80 "HgN/A
10:00 pm28 °FChilly.7 mph57%29.83 "HgN/A
9:00 pm27 °FChilly.9 mph56%29.85 "HgN/A
8:00 pm26 °FChilly.8 mph59%29.88 "HgN/A
7:00 pm25 °FChilly.8 mph62%29.90 "HgN/A
6:00 pm25 °FChilly.5 mph66%29.93 "HgN/A
5:00 pm25 °FChilly.6 mph67%29.96 "HgN/A
4:00 pm23 °FCold.2 mph72%29.99 "HgN/A
3:00 pm24 °FCold.5 mph71%30.01 "HgN/A
2:00 pm23 °FCold.6 mph74%30.03 "HgN/A
1:00 pm22 °FCold.3 mph80%30.05 "HgN/A
12:00 pm22 °FCold.2 mph82%30.06 "HgN/A
11:00 am22 °FCold.2 mph86%30.06 "HgN/A
10:00 am21 °FCold.2 mph91%30.07 "HgN/A
9:00 am23 °FCold.3 mph92%30.06 "HgN/A
8:00 am27 °FChilly.3 mph90%30.05 "HgN/A
Weather by CustomWeather, © 2017

See weather overviewHow to use our weather pages